AC4VM Weather Reports


Display with metric or nautical units.
time (UTC)temp
F
wind
direction
speed
MPH
gust
MPH
rain 1hr
in
rain 24hr
in
rain mn
in
humidity
%
barometer
mb
20260904223016 93 337 1.0 6.0 0.00 0.00 0.00 53 1010.9
20260904221515 94 33 3.0 6.0 0.00 0.00 0.00 51 1010.8
20260904220014 95 332 6.0 10.0 0.00 0.00 0.00 51 1010.9
20260904214533 94 14 1.0 3.0 0.00 0.00 0.00 50 1010.9
20260904213012 94 335 0.0 2.0 0.00 0.00 0.00 49 1011.0
20260904211513 94 359 2.0 5.0 0.00 0.00 0.00 48 1011.1
20260904210010 94 94 2.0 5.0 0.00 0.00 0.00 49 1011.2
20260904204509 95 44 3.0 8.0 0.00 0.00 0.00 50 1011.3
20260904203006 94 74 1.0 6.0 0.00 0.00 0.00 51 1011.5
20260904201503 96 264 1.0 6.0 0.00 0.00 0.00 49 1011.8
20260904200001 95 241 1.0 4.0 0.00 0.00 0.00 53 1012.0
20260904194604 94 100 0.0 5.0 0.00 0.00 0.00 52 1012.3
20260904193057 93 244 3.0 5.0 0.00 0.00 0.00 54 1012.7
20260904191555 93 308 2.0 4.0 0.00 0.00 0.00 55 1013.0
20260904190056 93 284 2.0 8.0 0.00 0.00 0.00 53 1013.1
20260904184603 94 286 4.0 7.0 0.00 0.00 0.00 53 1013.3
20260904183051 93 327 2.0 4.0 0.00 0.00 0.00 55 1013.5
20260904181544 93 145 2.0 7.0 0.00 0.00 0.00 56 1013.7
20260904180055 93 132 2.0 5.0 0.00 0.00 0.00 58 1013.7
20260904174542 93 214 2.0 5.0 0.00 0.00 0.00 58 1013.9
20260904173045 92 33 3.0 5.0 0.00 0.00 0.00 59 1014.3
20260904171538 92 149 3.0 7.0 0.00 0.00 0.00 60 1014.6
20260904170035 92 88 2.0 9.0 0.00 0.00 0.00 61 1014.5
20260904164534 91 85 3.0 6.0 0.00 0.00 0.00 64 1014.8
20260904163032 90 102 3.0 7.0 0.00 0.00 0.00 64 1014.9
20260904161530 90 75 2.0 6.0 0.00 0.00 0.00 64 1015.0
20260904160039 89 87 1.0 3.0 0.00 0.00 0.00 68 1015.1
20260904154527 88 81 4.0 7.0 0.00 0.00 0.00 67 1015.1
20260904153029 89 220 1.0 7.0 0.00 0.00 0.00 67 1015.1
20260904151524 87 96 1.0 4.0 0.00 0.00 0.00 69 1015.2
20260904150022 87 211 1.0 5.0 0.00 0.00 0.00 70 1015.2
20260904144519 86 204 0.0 4.0 0.00 0.00 0.00 72 1015.3
20260904143018 85 244 1.0 3.0 0.00 0.00 0.00 75 1015.1
20260904141515 85 255 2.0 3.0 0.00 0.00 0.00 74 1015.2
20260904140012 83 52 2.0 6.0 0.00 0.00 0.00 76 1015.3
20260904134509 82 76 2.0 4.0 0.00 0.00 0.00 78 1015.3
20260904133007 81 79 1.0 4.0 0.00 0.00 0.00 80 1015.0
20260904131502 80 116 1.0 3.0 0.00 0.00 0.00 82 1015.1
20260904130059 79 94 0.0 2.0 0.00 0.00 0.00 87 1015.1
20260904124557 77 26 0.0 2.0 0.00 0.00 0.00 88 1015.2
20260904123106 75 276 0.0 1.0 0.00 0.00 0.00 91 1015.0
20260904121551 73 276 0.0 1.0 0.00 0.00 0.00 93 1014.9
20260904120049 72 276 0.0 0.0 0.00 0.00 0.00 94 1014.7
20260904114550 71 276 0.0 0.0 0.00 0.00 0.00 94 1014.7
20260904113049 70 276 0.0 2.0 0.00 0.00 0.00 94 1014.7
20260904111553 71 276 0.0 1.0 0.00 0.00 0.00 94 1014.4
20260904110145 71 276 0.0 0.0 0.00 0.00 0.00 94 1014.2
20260904104544 71 276 0.0 0.0 0.00 0.00 0.00 94 1014.0
20260904103045 71 276 0.0 1.0 0.00 0.00 0.00 94 1014.0
20260904101546 71 276 0.0 1.0 0.00 0.00 0.00 94 1013.8
20260904100041 71 272 0.0 2.0 0.00 0.00 0.00 94 1013.9
20260904094541 71 272 0.0 2.0 0.00 0.00 0.00 93 1013.9
20260904093039 71 262 0.0 0.0 0.00 0.00 0.00 93 1013.7
20260904091539 71 262 0.0 0.0 0.00 0.00 0.00 92 1013.6
20260904090037 72 262 0.0 2.0 0.00 0.00 0.00 92 1013.4
20260904084536 72 262 0.0 2.0 0.00 0.00 0.00 92 1013.4
20260904083050 72 262 0.0 1.0 0.00 0.00 0.00 92 1013.4
20260904081534 72 262 1.0 3.0 0.00 0.00 0.00 92 1013.4
20260904080034 72 264 0.0 0.0 0.00 0.00 0.00 92 1013.3
20260904074536 72 264 0.0 0.0 0.00 0.00 0.00 92 1013.3
20260904073032 72 264 0.0 0.0 0.00 0.00 0.00 91 1013.3
20260904071533 73 264 0.0 0.0 0.00 0.00 0.00 91 1013.5
20260904070029 73 264 0.0 0.0 0.00 0.00 0.00 90 1013.5
20260904064528 73 264 0.0 2.0 0.00 0.00 0.00 90 1013.5
20260904063038 74 264 0.0 2.0 0.00 0.00 0.00 89 1013.5
20260904061524 74 264 0.0 0.0 0.00 0.00 0.00 89 1013.6
20260904060026 74 242 1.0 3.0 0.00 0.00 0.00 88 1013.9
20260904054521 74 289 0.0 0.0 0.00 0.00 0.00 88 1013.9
20260904053025 74 289 0.0 0.0 0.00 0.00 0.00 88 1014.0
20260904051517 74 289 0.0 0.0 0.00 0.00 0.00 88 1014.1
20260904050016 75 289 0.0 0.0 0.00 0.00 0.00 87 1014.2
20260904044530 75 289 0.0 0.0 0.00 0.00 0.00 87 1014.3
20260904043115 75 289 0.0 1.0 0.00 0.00 0.00 87 1014.2
20260904041510 76 289 0.0 1.0 0.00 0.00 0.00 87 1014.2
20260904040006 76 289 0.0 0.0 0.00 0.00 0.00 87 1014.0
20260904034505 76 289 0.0 1.0 0.00 0.00 0.00 87 1014.2
20260904033005 77 289 0.0 2.0 0.00 0.00 0.00 84 1014.5
20260904031504 77 289 0.0 2.0 0.00 0.00 0.00 83 1014.7
20260904030004 77 289 1.0 2.0 0.00 0.00 0.00 85 1014.6
20260904024505 78 289 0.0 1.0 0.00 0.00 0.00 84 1014.5
20260904023003 78 289 1.0 2.0 0.00 0.00 0.00 82 1014.4
20260904021502 79 316 0.0 2.0 0.00 0.00 0.00 80 1014.4
20260904020002 79 259 0.0 1.0 0.00 0.00 0.00 81 1014.3
20260904014504 80 259 0.0 0.0 0.00 0.00 0.00 80 1013.8
20260904013001 81 259 0.0 0.0 0.00 0.00 0.00 77 1013.7
20260904011600 81 259 0.0 2.0 0.00 0.00 0.00 77 1013.4
20260904010103 82 256 1.0 2.0 0.00 0.00 0.00 73 1013.3
20260904004603 83 256 1.0 2.0 0.00 0.00 0.00 72 1013.0
20260904003059 85 100 0.0 1.0 0.00 0.00 0.00 65 1013.0
20260904001601 87 100 0.0 2.0 0.00 0.00 0.00 63 1013.0
20260904000134 87 100 1.0 3.0 0.00 0.00 0.00 63 1012.7
20260903234558 87 89 0.0 5.0 0.00 0.00 0.00 67 1012.5
20260903233101 91 77 0.0 2.0 0.00 0.00 0.00 54 1012.4
20260903231557 92 82 1.0 4.0 0.00 0.00 0.00 52 1012.3
20260903224607 94 39 1.0 5.0 0.00 0.00 0.00 47 1012.2